Weather History for Shreveport, LA

Change the Weather History Date:

Wednesday, March 21, 2012

  Actual Average Record
Temperature  
Mean Temperature 60 °F 59 °F  
Max Temperature 66 °F 71 °F 89 °F (1916)
Min Temperature 53 °F 47 °F 26 °F (1876)
Degree Days  
Heating Degree Days 5 7  
Month to date heating degree days 57 191  
Since 1 July heating degree days 1520 2073  
Cooling Degree Days 0 1  
Month to date cooling degree days 101 19  
Year to date cooling degree days 140 29  
Growing Degree Days 10 (Base 50)    
Moisture  
Dew Point 54 °F    
Average Humidity 80    
Maximum Humidity 93    
Minimum Humidity 67    
Precipitation  
Precipitation 0.37 in 0.13 in 1.96 in (1955)
Month to date precipitation 7.84 2.77  
Year to date precipitation 14.59 11.72  
Snow  
Snow 0.00 in - - ()
Month to date snowfall 0.0  
Since 1 July snowfall T  
Snow Depth 0.00 in    
Sea Level Pressure  
Sea Level Pressure 29.84 in    
Wind  
Wind Speed 8 mph (South)    
Max Wind Speed 16 mph    
Max Gust Speed 21 mph    
Visibility 9 miles    
Events Rain , Thunderstorm    
T = Trace of Precipitation, MM = Missing Value Source: NWS Daily Summary

Daily Weather History Graph

Daily Weather History Graph

Search for Another Location

Airport:

Trip Planner

Search our weather history database for the weather conditions in past years. The results will help you decide how hot, cold, wet, or windy it might be!

Date:

Astronomy

Mar. 21, 2012 Rise Set
Actual Time 7:17 AM CDT 7:27 PM CDT
Civil Twilight 6:52 AM CDT 7:52 PM CDT
Nautical Twilight 6:23 AM CDT 8:21 PM CDT
Astronomical Twilight 5:55 AM CDT 8:50 PM CDT
Moon 6:27 AM CDT (3/21) 6:54 PM CDT (3/21)
Length of Visible Light 12h 59m
Length of Day
12h 10m
Waning Crescent, 1% of the Moon is Illuminated
Mar 21
Waning Crescent
Mar 22
New
Mar 30
First Quarter
Apr 6
Full
Apr 13
Last Quarter

Hourly Weather History & Observations

Time (CDT) Temp. Dew Point Humidity Pressure Visibility Wind Dir Wind Speed Gust Speed Precip Events Conditions
12:56 AM 57.9 °F 55.0 °F 90% 29.81 in 6.0 mi East 11.5 mph - 0.21 in Rain Light Rain
1:04 AM 57.2 °F 55.4 °F 94% 29.82 in 9.0 mi East 8.1 mph - 0.00 in Rain , Thunderstorm Light Thunderstorms and Rain
1:56 AM 57.0 °F 55.0 °F 93% 29.82 in 5.0 mi ENE 5.8 mph - 0.09 in Rain , Thunderstorm Light Thunderstorms and Rain
2:19 AM 57.2 °F 53.6 °F 88% 29.80 in 7.0 mi East 8.1 mph - 0.01 in Rain , Thunderstorm Light Thunderstorms and Rain
2:56 AM 57.0 °F 54.0 °F 89% 29.78 in 5.0 mi ENE 9.2 mph - 0.07 in Rain , Thunderstorm Light Thunderstorms and Rain
3:16 AM 57.2 °F 55.4 °F 94% 29.77 in 7.0 mi East 5.8 mph - 0.01 in Rain Light Rain
3:56 AM 57.9 °F 55.0 °F 90% 29.80 in 10.0 mi West 9.2 mph - 0.03 in Rain Light Rain
4:03 AM 57.2 °F 55.4 °F 94% 29.81 in 10.0 mi West 10.4 mph - 0.00 in Rain Light Rain
4:45 AM 57.2 °F 55.4 °F 94% 29.80 in 10.0 mi WNW 8.1 mph - 0.00 in   Overcast
4:56 AM 57.9 °F 55.0 °F 90% 29.80 in 10.0 mi WNW 9.2 mph - 0.00 in   Overcast
5:06 AM 57.2 °F 55.4 °F 94% 29.80 in 10.0 mi WNW 6.9 mph - N/A   Overcast
5:13 AM 57.2 °F 55.4 °F 94% 29.81 in 10.0 mi WNW 9.2 mph - N/A   Overcast
5:31 AM 57.2 °F 55.4 °F 94% 29.82 in 10.0 mi WNW 6.9 mph - N/A   Overcast
5:39 AM 57.2 °F 55.4 °F 94% 29.81 in 10.0 mi WNW 10.4 mph - N/A   Overcast
5:56 AM 57.9 °F 55.0 °F 90% 29.82 in 10.0 mi WNW 6.9 mph - N/A   Overcast
6:56 AM 57.9 °F 55.9 °F 93% 29.83 in 7.0 mi WNW 8.1 mph - 0.01 in Rain Light Rain
7:22 AM 57.2 °F 55.4 °F 94% 29.85 in 5.0 mi WNW 6.9 mph - 0.02 in Rain Rain
7:56 AM 59.0 °F 55.0 °F 87% 29.87 in 10.0 mi West 10.4 mph - 0.03 in Rain Light Rain
8:56 AM 57.0 °F 51.1 °F 81% 29.87 in 7.0 mi West 10.4 mph - 0.04 in Rain Light Rain
9:56 AM 55.9 °F 52.0 °F 87% 29.87 in 7.0 mi East 5.8 mph - 0.10 in   Overcast
10:56 AM 55.9 °F 53.1 °F 90% 29.86 in 10.0 mi ESE 3.5 mph - 0.00 in   Overcast
11:45 AM 55.4 °F 53.6 °F 94% 29.86 in 10.0 mi SW 4.6 mph - N/A   Overcast
11:56 AM 57.0 °F 54.0 °F 89% 29.88 in 10.0 mi SSW 6.9 mph - N/A   Overcast
12:56 PM 57.0 °F 53.1 °F 87% 29.86 in 10.0 mi SSW 5.8 mph - N/A   Overcast
1:56 PM 61.0 °F 53.1 °F 75% 29.83 in 10.0 mi SSE 8.1 mph - N/A   Mostly Cloudy
2:56 PM 63.0 °F 53.1 °F 70% 29.82 in 10.0 mi SE 6.9 mph - N/A   Mostly Cloudy
3:56 PM 63.0 °F 52.0 °F 67% 29.82 in 10.0 mi SE 9.2 mph - N/A   Mostly Cloudy
4:56 PM 64.9 °F 53.1 °F 65% 29.81 in 10.0 mi SSE 12.7 mph - N/A   Mostly Cloudy
5:56 PM 64.9 °F 54.0 °F 68% 29.83 in 10.0 mi SSE 11.5 mph - N/A   Scattered Clouds
6:56 PM 63.0 °F 53.1 °F 70% 29.86 in 10.0 mi SE 9.2 mph - N/A   Scattered Clouds
7:56 PM 59.0 °F 52.0 °F 78% 29.88 in 10.0 mi SE 8.1 mph - N/A   Scattered Clouds
8:56 PM 57.2 °F 51.8 °F 82% 29.91 in 10.0 mi South 6.9 mph - N/A   Partly Cloudy
9:56 PM 55.9 °F 51.1 °F 84% 29.92 in 10.0 mi South 5.8 mph - N/A   Partly Cloudy
10:56 PM 55.0 °F 51.1 °F 86% 29.93 in 10.0 mi South 5.8 mph - N/A   Clear
11:56 PM 54.0 °F 50.0 °F 86% 29.93 in 10.0 mi SSE 4.6 mph - N/A   Clear